Showing default

OPS 9343 (IDSCS 21), 3286

Orbit data source: Space-Track

OPS 9343 (IDSCS 21), 3286 is a payload satellite owned by SAMSO (US) in GEO that was launched on Thu, 13 Jun 1968 UTC via a TITAN IIIC launch vehicle from the Air Force Eastern Test Range (AFETR). Payload-class satellites include a variety of spacecraft equipped with specific instruments for various scientific and technological missions. These include communications satellites like Starlink; space stations such as the ISS; scientific satellites like the Hubble; Earth observation satellites from companies like Planet Labs, Umbra, and HawkEye 360; GPS; miniature CubeSats for education and research; and military/defense satellites.

Not visible in the next 10 days
Identifier
3286, 1968-050C
Orbit
GEO
Country
Flag of USUS
Related business
Manufacturer
Philco-Ford
Mission
Non-operational spacecraft
Bus & Motor
IDCSP, Unknown motor
Mass
45 kg wet, 45 kg dry
Launch date (UTC)
1968-06-13 (57 years ago)
Launch vehicle
TITAN IIIC
Launch site
Air Force Eastern Test Range (AFETR)
Object type
Payload
Rocket body
Debris
Shape & HBR
Unknown
Radar Cross Section
Medium (>0.1 m² and <1 m²)

Expand to show TLE details & history
Last TLE update: 23 hours ago

TLE from 23 hours ago
0 OPS 9343 (IDSCS 21)
1 03286U 68050C   25293.18515631 -.00000080  00000-0  00000-0 0  9998
2 03286   6.7286  54.1152 0020504 146.1912 205.6179  1.07757935 44869
Epoch: 2025-10-20T04:26Z
TLE epoch observation values (Epoch: 2025-10-20T04:26:37.505Z)
Latitude
-0.96633°
Longitude
-49.69381°
Altitude
33,884.787 km
Speed
3.144 km/s
True Right ascension
03h 03m 24s
True Declination
0° 57' 55"
Sunlit
Object was in daylight at epoch
Visualization orbit readout
Latitude
Unknown
Longitude
Unknown
Altitude
Unknown
Speed
Unknown
Apparent Right ascension
Unknown
Apparent Declination
Unknown
Sunlit
N/A
Visualization observer readout
Local Sidereal Time
22:51:47
Azimuth
Unknown
Elevation
Unknown
Doppler factor
Unknown
Orbital elements
Apogee altitude
33,893.916 km
Perigee altitude
33,729.106 km
Semi-major axis
40,189.648 km
Eccentricity
0.00205
Inclination
6.7286°
RAAN
54.1152°
Arg. of periapsis
146.1912°
True anomaly
205.51655°
Mean anomaly
205.6179°
Eccentric anomaly
205.5672°
Mean motion
0.26938 °/min
Orbital period
1,336.38 mins
BSTAR
0
Loading maneuver chart data...
Computing Atmospheric mass density...
Loading historical data...
Loading historical data...
Loading historical data...
Loading historical data...
Loading historical data...
Loading historical data...
Loading historical data...

Documentation

Showing up to 5 results
|